Weather History for Vero Beach, FL

Change the Weather History Date:

Thursday, August 22, 2013

  Actual Average Record
Temperature  
Mean Temperature 83 °F 82 °F  
Max Temperature 90 °F 90 °F 95 °F (1993)
Min Temperature 75 °F 74 °F 67 °F (1984)
Degree Days  
Heating Degree Days 0 0  
Month to date heating degree days 0 0  
Since 1 June heating degree days 0 0  
Since 1 July heating degree days 0 0  
Cooling Degree Days 18 17  
Month to date cooling degree days 378 374  
Year to date cooling degree days 2266 2154  
Since 1 June cooling degree days 1359 1348  
Growing Degree Days 32 (Base 50)    
Moisture  
Dew Point 77 °F    
Average Humidity 84    
Maximum Humidity 100    
Minimum Humidity 68    
Precipitation  
Precipitation T in 0.24 in 3.22 in (1998)
Month to date precipitation 0.80 4.86  
Year to date precipitation 27.01 32.53  
Sea Level Pressure  
Sea Level Pressure 30.05 in    
Wind  
Wind Speed 8 mph (East)    
Max Wind Speed 17 mph    
Max Gust Speed 23 mph    
Visibility 10 miles    
Events Rain    
T = Trace of Precipitation, MM = Missing Value Source: NWS Daily Summary

Daily Weather History Graph

Daily Weather History Graph

Search for Another Location

Airport:

Trip Planner

Search our weather history database for the weather conditions in past years. The results will help you decide how hot, cold, wet, or windy it might be!

Date:

Astronomy

Aug. 22, 2013 Rise Set
Actual Time 6:55 AM EDT 7:52 PM EDT
Civil Twilight 6:31 AM EDT 8:16 PM EDT
Nautical Twilight 6:03 AM EDT 8:45 PM EDT
Astronomical Twilight 5:33 AM EDT 9:14 PM EDT
Moon 8:53 PM EDT (8/22) 8:28 AM EDT (8/22)
Length of Visible Light 13h 45m
Length of Day
12h 56m
Waning Gibbous, 97% of the Moon is Illuminated
Aug 22
Waning Gibbous
Aug 28
Last Quarter
Sep 5
New
Sep 12
First Quarter
Sep 19
Full

Hourly Weather History & Observations

Time (EDT) Temp. Heat Index Dew Point Humidity Pressure Visibility Wind Dir Wind Speed Gust Speed Precip Events Conditions
12:20 AM 77.0 °F - 75.2 °F 94% 30.10 in 10.0 mi Calm Calm - N/A   Mostly Cloudy
12:27 AM 77.0 °F - 75.2 °F 94% 30.10 in 10.0 mi Calm Calm - N/A   Scattered Clouds
12:53 AM 77.0 °F - 77.0 °F 100% 30.09 in 10.0 mi Calm Calm - N/A   Clear
1:53 AM 77.0 °F - 75.9 °F 96% 30.08 in 10.0 mi Calm Calm - N/A   Clear
2:53 AM 75.9 °F - 75.9 °F 100% 30.07 in 10.0 mi ENE 3.5 mph - N/A   Partly Cloudy
3:53 AM 75.9 °F - 75.9 °F 100% 30.06 in 9.0 mi SW 3.5 mph - 0.00 in Rain Light Rain
4:53 AM 75.9 °F - 75.9 °F 100% 30.04 in 10.0 mi Calm Calm - 0.00 in   Clear
5:53 AM 75.9 °F - 75.9 °F 100% 30.05 in 9.0 mi Calm Calm - N/A   Clear
6:53 AM 75.0 °F - 75.0 °F 100% 30.06 in 8.0 mi Calm Calm - N/A   Clear
7:53 AM 79.0 °F - 78.1 °F 97% 30.07 in 10.0 mi East 3.5 mph - N/A   Clear
8:53 AM 82.9 °F 93.8 °F 79.0 °F 88% 30.07 in 10.0 mi East 8.1 mph - N/A   Clear
9:53 AM 86.0 °F 98.3 °F 78.1 °F 77% 30.09 in 10.0 mi ESE 10.4 mph - N/A   Clear
10:53 AM 86.0 °F 98.3 °F 78.1 °F 77% 30.09 in 10.0 mi East 9.2 mph - N/A   Partly Cloudy
11:53 AM 87.1 °F 99.8 °F 78.1 °F 74% 30.08 in 10.0 mi ESE 11.5 mph - N/A   Scattered Clouds
12:53 PM 88.0 °F 100.2 °F 77.0 °F 70% 30.06 in 10.0 mi ESE 12.7 mph - N/A   Scattered Clouds
1:53 PM 89.1 °F 101.4 °F 77.0 °F 67% 30.05 in 10.0 mi East 15.0 mph 19.6 mph N/A   Clear
2:53 PM 89.1 °F 103.2 °F 78.1 °F 70% 30.04 in 10.0 mi East 13.8 mph 23.0 mph N/A   Partly Cloudy
3:53 PM 88.0 °F 100.2 °F 77.0 °F 70% 30.02 in 10.0 mi East 15.0 mph - N/A   Scattered Clouds
4:53 PM 86.0 °F 96.9 °F 77.0 °F 74% 30.02 in 10.0 mi ESE 12.7 mph - N/A   Scattered Clouds
5:53 PM 84.0 °F 93.7 °F 77.0 °F 79% 30.00 in 10.0 mi East 11.5 mph - N/A   Clear
6:53 PM 84.0 °F 93.7 °F 77.0 °F 79% 30.00 in 10.0 mi East 10.4 mph - N/A   Clear
7:53 PM 82.0 °F 89.4 °F 75.9 °F 82% 30.01 in 10.0 mi East 8.1 mph - N/A   Partly Cloudy
8:53 PM 81.0 °F 88.6 °F 78.1 °F 91% 30.02 in 10.0 mi East 4.6 mph - N/A   Partly Cloudy
9:53 PM 81.0 °F 88.6 °F 78.1 °F 91% 30.03 in 10.0 mi East 4.6 mph - N/A   Partly Cloudy
10:53 PM 82.0 °F 91.0 °F 78.1 °F 88% 30.03 in 10.0 mi ESE 8.1 mph - N/A   Clear
11:53 PM 82.0 °F 91.0 °F 78.1 °F 88% 30.04 in 10.0 mi ESE 9.2 mph - N/A   Clear